Wetbulb
67.09 66.79 68.06 63.59 53.44 52.60 48.16 51.42 56.14 55.26 55.87 58.85 60.24 59.52 57.60 58.48 57.31 53.66 62.98 63.47 64.98 64.59 66.27 68.29 70.54 70.68 70.21 69.65 70.09 71.11 70.84 71.09 71.06 70.97 70.65 69.79 68.92 68.20 67.64 67.71 67.29 66.77 66.35 66.12 66.06 66.21 66.28 66.12 65.84
64.77 66.05 63.75 58.84 49.63 45.93 47.16 54.10 54.05 57.11 58.51 60.67 60.95 59.78 59.03 55.76 61.41 60.79 60.24 64.06 64.68 64.22 65.09 69.24 69.72 70.42 69.74 69.20 69.60 69.89 70.22 70.50 70.45 70.35 70.21 69.78 69.06 68.06 67.37 67.03 66.50 66.34 66.06 65.83 65.91 65.72 65.42 65.05 64.84
64.39 63.97 57.95 54.49 50.67 46.73 47.58 54.61 56.61 58.20 59.50 59.41 59.02 61.47 60.07 57.86 61.86 62.51 63.88 64.97 63.82 62.87 67.41 68.83 69.38 70.13 69.21 68.57 68.37 68.74 69.05 69.03 68.88 68.86 68.78 68.22 67.73 67.93 67.91 67.91 66.46 65.86 65.97 66.00 65.81 65.39 64.65 64.13 63.99
61.52 59.76 57.60 50.49 48.49 51.71 52.22 55.69 58.28 57.86 59.15 60.87 60.53 56.66 60.49 64.16 63.33 64.48 64.97 64.08 62.21 63.30 68.26 68.61 69.42 69.66 68.68 68.20 67.68 67.64 67.38 67.47 67.68 67.61 67.50 66.45 65.87 65.90 65.74 65.85 66.67 67.43 66.30 65.53 64.90 63.98 63.87 64.66 65.18
60.90 57.68 51.10 49.20 49.83 52.20 55.13 58.19 58.90 57.60 58.30 58.81 59.05 56.59 57.92 63.12 65.69 64.25 64.04 63.23 62.34 64.59 67.44 68.05 68.93 69.18 68.92 67.97 67.63 67.35 67.18 67.20 67.36 67.04 66.78 65.99 65.69 65.76 65.40 64.95 64.56 64.23 63.96 63.71 63.58 63.84 64.35 64.71 64.92
55.26 55.80 48.42 46.84 49.71 53.56 54.67 57.82 58.02 58.24 58.93 58.37 58.57 57.88 58.83 64.21 63.68 62.92 63.77 61.80 65.18 64.27 67.26 67.54 66.18 67.71 68.42 68.38 67.96 67.77 67.13 66.67 66.80 67.36 66.87 66.31 66.12 65.94 65.30 64.86 64.49 64.26 63.97 63.73 63.63 63.70 63.95 64.43 64.67
53.41 51.11 48.16 48.39 48.78 51.80 55.15 58.93 56.21 57.94 57.63 57.37 58.14 56.52 59.39 61.48 64.34 63.22 62.71 61.50 63.92 65.56 65.11 66.32 66.81 66.09 65.98 66.49 66.50 66.89 67.13 66.84 66.48 66.42 66.44 66.50 66.46 65.77 64.74 64.68 64.29 63.83 63.72 63.74 63.79 64.01 64.29 64.70 64.95
54.72 52.08 48.52 49.85 48.57 49.26 54.43 56.16 56.73 57.80 57.50 61.38 61.05 55.97 55.55 60.78 64.32 63.75 61.90 60.87 61.72 65.24 66.16 65.72 66.22 66.13 65.78 64.80 64.03 64.60 65.43 65.74 65.64 64.66 63.67 63.47 63.90 64.04 63.41 62.53 63.81 63.44 63.98 64.23 64.42 64.60 64.82 65.01 65.05
57.46 48.39 46.54 48.94 50.05 50.56 54.77 54.26 56.98 58.46 58.51 59.38 60.89 60.19 61.31 63.06 63.91 61.77 59.78 59.65 60.24 61.95 64.82 65.76 64.75 65.78 65.57 64.43 62.62 62.77 63.55 63.79 63.46 62.56 61.53 61.01 61.83 62.15 61.23 61.54 62.96 63.58 63.79 63.77 64.35 64.95 65.30 64.67 63.63
52.63 48.85 48.54 52.15 53.12 51.70 53.42 53.48 55.16 55.40 57.02 57.61 59.12 61.06 62.17 62.53 61.78 59.20 58.55 58.23 58.51 59.49 60.96 62.44 64.18 65.38 63.13 63.76 62.32 63.27 64.23 63.68 64.00 64.45 62.33 63.44 63.59 63.21 62.70 60.27 61.83 62.99 63.01 64.01 64.85 65.19 64.30 62.06 60.75
53.17 49.26 52.13 52.12 52.60 53.31 53.18 53.57 55.28 53.88 53.34 56.93 57.94 59.11 60.22 60.63 60.36 58.80 58.94 59.64 59.49 60.81 60.61 61.95 63.66 63.33 63.17 62.31 62.30 63.51 63.81 64.88 64.02 64.07 64.14 63.91 63.48 62.79 62.62 62.94 62.12 62.11 58.93 62.16 63.16 62.85 62.08 61.94 61.68
49.76 53.55 53.34 52.68 52.87 52.75 51.71 53.45 53.06 53.36 54.22 57.99 61.33 61.07 59.91 59.36 59.21 58.88 58.97 60.21 60.80 61.60 62.54 61.94 63.08 63.37 64.02 63.55 63.13 63.67 63.68 63.53 63.14 63.69 64.07 62.78 62.64 62.43 62.32 61.87 62.22 62.31 62.30 61.94 62.42 62.69 62.73 62.53 63.57
50.76 52.33 54.01 53.08 52.45 52.05 53.55 51.59 51.54 51.02 56.87 59.44 62.36 60.35 59.17 58.99 58.75 59.67 60.82 61.74 61.44 61.37 61.90 62.50 63.36 63.58 64.12 64.40 63.55 63.63 63.31 63.16 63.21 63.09 63.45 62.78 62.05 62.03 62.85 62.77 63.10 63.84 64.45 63.91 63.61 63.64 63.87 64.03 63.85
53.22 52.78 53.01 53.18 52.45 53.11 51.79 51.81 51.76 54.53 57.43 59.12 60.72 59.95 59.92 59.48 58.70 58.88 60.03 61.19 61.74 62.41 62.13 62.81 63.55 63.68 64.02 63.29 63.64 63.06 63.07 63.03 62.97 62.54 62.88 63.56 63.23 63.57 63.83 63.72 64.10 64.31 64.82 64.82 63.88 63.69 63.24 63.07 63.13
53.24 49.31 51.32 52.03 52.40 51.48 52.61 49.31 49.82 54.56 56.95 57.94 59.01 59.85 60.46 60.58 60.31 59.48 60.06 60.85 61.94 62.55 63.49 63.47 63.76 63.90 63.25 63.11 63.14 62.90 62.99 63.28 62.74 63.46 64.42 64.71 65.18 64.67 64.57 64.47 64.51 64.68 64.33 64.16 63.67 63.64 63.72 62.70 63.09
49.17 48.98 44.40 50.25 51.56 51.82 51.14 44.80 51.76 55.05 54.35 55.21 57.49 58.71 59.92 60.52 60.64 61.53 60.93 61.57 62.20 62.72 63.22 63.99 64.97 63.60 62.87 62.29 62.35 62.73 63.36 63.36 63.59 64.43 65.22 65.74 65.72 65.43 64.80 64.77 64.85 64.47 63.49 63.20 62.87 61.55 60.66 59.03 58.33
46.89 41.52 42.95 45.60 51.60 50.81 49.45 46.04 52.84 54.17 54.61 52.33 56.47 58.37 59.29 59.70 60.64 62.05 63.29 63.05 64.28 64.76 64.43 63.36 63.28 62.62 62.55 62.13 62.58 62.99 63.76 64.23 64.56 62.04 61.13 60.05 59.13 59.65 59.71 61.53 60.14 58.85 58.83 58.58 58.11 57.06 56.45 55.57 55.97
41.07 41.84 43.31 43.19 47.66 50.02 47.48 46.94 51.20 52.92 52.81 51.84 53.26 57.35 58.15 59.20 60.15 62.05 63.81 64.32 64.23 64.05 64.13 64.34 63.85 63.19 62.96 63.06 63.05 63.91 63.68 57.91 56.10 55.48 55.47 55.98 56.00 56.32 55.97 55.89 55.74 56.02 55.73 55.42 55.19 54.67 55.19 54.64 54.47
45.48 43.56 42.39 45.02 47.89 45.81 46.82 47.25 49.50 51.84 51.13 49.99 51.66 55.88 57.33 58.49 60.90 62.63 63.58 63.64 63.51 63.10 63.37 63.69 63.77 64.44 64.02 63.49 63.01 63.05 57.60 54.14 53.56 53.81 53.92 53.31 53.51 53.05 52.81 53.86 53.70 53.90 54.14 53.54 53.55 53.02 52.67 52.34 53.02
45.95 43.11 42.73 44.40 46.14 45.54 44.79 45.96 49.38 51.09 50.44 51.26 51.21 54.14 57.13 58.79 60.30 60.88 60.88 59.94 61.03 61.82 61.50 61.55 61.70 62.44 63.42 63.47 61.63 57.03 53.05 51.90 52.28 51.50 50.75 50.42 50.27 50.64 51.29 50.74 49.93 50.23 50.53 49.92 49.11 49.42 49.60 51.09 51.40
44.71 43.59 43.06 42.60 44.74 45.56 44.64 43.33 45.92 49.69 50.73 51.08 50.40 52.30 57.62 57.98 56.79 54.97 51.66 50.82 51.44 50.65 50.95 52.13 52.20 52.07 53.83 58.60 55.07 52.46 52.41 51.61 49.99 48.97 46.51 45.47 45.79 46.25 46.47 46.45 47.14 47.70 47.75 46.74 47.14 46.88 46.84 46.58 48.99
41.14 46.44 43.97 42.07 41.82 37.34 45.27 35.46 43.41 47.50 48.36 47.95 48.70 50.11 55.60 53.85 51.68 50.21 48.98 47.16 46.35 46.03 46.48 46.25 46.72 47.41 49.56 51.85 51.19 49.91 48.04 46.15 46.74 46.00 45.25 42.86 42.75 42.62 43.29 43.79 43.51 43.66 43.84 43.08 43.75 44.40 44.28 44.31 43.58
41.57 46.96 44.42 43.10 40.72 39.61 40.45 37.96 41.05 47.52 46.33 44.59 47.25 52.24 51.35 49.67 49.03 46.82 45.25 44.01 43.81 43.42 42.48 42.57 42.49 42.64 43.61 46.15 47.00 45.49 43.32 42.81 42.89 42.39 41.31 41.14 40.97 40.60 40.95 41.55 41.32 41.02 41.28 41.00 42.09 41.65 41.09 40.99 41.28
46.97 43.04 42.13 41.91 39.43 32.82 39.02 37.55 38.16 42.70 45.37 44.67 47.33 48.20 48.29 46.08 44.41 43.28 42.55 41.84 40.68 40.90 40.17 39.95 39.54 39.41 40.47 40.46 40.34 39.74 39.18 38.80 38.21 38.21 38.34 38.54 38.61 38.55 38.46 39.58 39.45 39.45 39.12 39.26 40.26 39.91 38.69 38.58 39.28
44.62 39.33 31.31 30.15 30.03 28.91 37.88 38.02 38.99 44.73 46.18 44.68 44.43 44.87 45.02 43.62 41.06 40.38 38.98 38.86 38.93 38.57 38.90 39.30 39.11 38.14 39.14 39.23 38.97 38.71 38.05 37.78 37.06 37.08 36.80 36.36 36.59 36.84 36.60 37.52 37.17 36.91 36.95 37.37 38.54 37.70 36.53 37.08 36.57
40.88 39.23 31.95 25.54 25.98 29.84 35.22 33.17 37.44 41.80 44.22 45.29 44.71 43.90 42.86 40.32 39.48 38.61 38.63 38.97 39.31 39.57 39.71 39.62 39.12 37.99 38.33 38.31 37.96 38.36 38.20 37.65 37.04 36.62 36.63 35.67 35.29 35.24 35.69 35.79 35.79 35.66 35.80 36.04 36.73 36.48 35.52 35.91 35.07
39.22 36.13 39.76 31.34 27.80 28.49 34.17 37.67 40.22 41.37 40.78 41.64 41.75 42.23 39.08 38.19 38.54 38.86 40.36 40.81 40.64 40.17 39.98 39.08 38.68 38.17 38.08 37.96 37.84 37.22 37.12 36.42 35.33 35.55 35.18 34.25 33.95 34.62 34.17 34.42 34.08 34.19 34.51 34.93 34.80 34.59 33.55 34.04 33.61
40.56 41.30 33.10 33.38 22.98 23.71 30.52 31.71 34.96 36.60 37.51 39.31 39.44 39.24 38.00 38.58 40.40 41.05 40.48 39.36 39.06 38.67 38.50 38.56 38.14 37.30 36.74 36.52 35.29 34.10 33.78 33.88 33.63 33.16 32.32 32.58 32.53 32.82 32.72 32.83 32.84 32.62 33.31 33.45 33.22 32.99 32.55 31.95 32.23
37.74 36.60 37.58 36.49 33.27 26.13 25.33 29.96 34.77 39.19 39.16 38.33 39.48 39.31 38.67 40.05 41.08 40.04 39.44 38.37 37.03 36.61 35.92 35.45 35.11 34.67 34.01 33.95 33.58 32.70 32.22 32.23 32.07 31.42 31.25 31.40 31.56 31.52 31.21 31.30 31.30 31.44 31.81 31.95 31.42 31.06 30.90 30.22 30.13
37.95 36.55 37.65 31.35 30.28 30.62 28.72 30.14 37.07 38.93 40.78 40.21 39.96 39.66 40.77 41.00 40.16 38.89 37.00 35.67 35.37 35.15 34.70 34.10 33.75 32.82 32.58 32.54 31.71 31.20 31.34 31.07 30.32 29.91 30.14 30.36 29.84 30.40 30.03 30.32 30.13 30.31 30.63 30.45 29.76 29.16 29.36 28.93 28.21
MSLP
1013.53 1012.91 1012.29 1012.12 1012.44 1011.61 1010.91 1010.10 1009.36 1009.57 1009.75 1009.98 1010.34 1010.79 1012.42 1013.64 1014.42 1015.94 1016.24 1016.27 1016.79 1017.75 1018.71 1019.11 1019.37 1019.68 1019.98 1020.18 1020.27 1020.23 1020.25 1020.21 1020.36 1020.67 1020.94 1021.15 1021.42 1021.59 1021.72 1021.86 1021.95 1021.97 1022.04 1022.11 1022.15 1022.15 1022.18 1022.18 1022.12
1013.21 1012.23 1012.35 1011.85 1011.86 1012.01 1011.57 1009.77 1009.50 1009.65 1009.90 1010.36 1010.77 1011.25 1012.21 1014.68 1015.27 1016.03 1016.42 1016.60 1017.13 1018.06 1018.76 1019.31 1019.76 1019.98 1020.24 1020.48 1020.58 1020.66 1020.69 1020.80 1020.92 1021.13 1021.36 1021.56 1021.79 1021.91 1022.02 1022.12 1022.16 1022.26 1022.31 1022.34 1022.38 1022.47 1022.50 1022.44 1022.37
1013.32 1012.39 1012.21 1011.51 1011.39 1011.89 1011.56 1009.80 1009.88 1010.12 1010.30 1010.32 1011.15 1011.98 1013.18 1015.27 1015.88 1016.11 1016.51 1016.78 1017.37 1018.20 1018.77 1019.69 1020.09 1020.32 1020.63 1020.86 1021.03 1021.08 1021.09 1021.13 1021.29 1021.49 1021.75 1022.02 1022.15 1022.20 1022.31 1022.34 1022.29 1022.43 1022.52 1022.53 1022.56 1022.63 1022.64 1022.65 1022.62
1012.31 1012.15 1011.92 1011.61 1011.79 1011.80 1011.53 1010.24 1010.01 1010.35 1010.57 1010.70 1011.22 1013.25 1014.77 1015.31 1015.56 1016.27 1016.58 1016.90 1017.62 1018.19 1019.29 1019.99 1020.28 1020.58 1020.84 1021.06 1021.21 1021.36 1021.53 1021.66 1021.73 1021.88 1022.10 1022.26 1022.35 1022.51 1022.62 1022.61 1022.62 1022.57 1022.69 1022.73 1022.77 1022.79 1022.77 1022.75 1022.76
1012.05 1011.76 1011.46 1011.36 1012.27 1011.65 1010.62 1009.82 1009.84 1010.16 1010.57 1011.08 1011.58 1013.90 1015.15 1016.28 1016.34 1016.54 1016.71 1017.18 1017.85 1018.62 1019.60 1020.24 1020.47 1020.71 1021.00 1021.23 1021.44 1021.63 1021.82 1021.96 1022.06 1022.17 1022.34 1022.43 1022.52 1022.62 1022.74 1022.81 1022.84 1022.83 1022.85 1022.86 1022.84 1022.87 1022.90 1022.86 1022.76
1012.43 1011.51 1011.37 1011.38 1011.77 1011.31 1010.64 1009.99 1009.70 1010.01 1010.56 1011.46 1012.07 1013.89 1015.85 1016.66 1016.95 1016.84 1016.98 1017.51 1018.00 1018.87 1019.63 1020.37 1020.79 1020.96 1021.19 1021.44 1021.66 1021.83 1021.99 1022.18 1022.24 1022.29 1022.46 1022.61 1022.71 1022.78 1022.91 1022.96 1023.02 1023.10 1023.17 1023.21 1023.18 1023.08 1022.99 1022.95 1022.84
1012.78 1012.02 1011.60 1011.49 1012.02 1011.56 1010.81 1010.00 1010.01 1010.27 1010.84 1011.54 1011.94 1013.65 1016.20 1016.83 1017.30 1017.06 1017.21 1017.71 1018.10 1018.97 1019.63 1020.36 1020.87 1021.20 1021.46 1021.72 1021.87 1021.98 1022.13 1022.32 1022.46 1022.58 1022.70 1022.84 1022.94 1023.02 1023.08 1023.14 1023.12 1023.16 1023.24 1023.32 1023.33 1023.33 1023.28 1023.14 1023.02
1013.34 1012.85 1011.89 1011.48 1011.43 1011.37 1011.11 1010.53 1010.69 1010.82 1011.58 1011.97 1012.43 1013.51 1015.89 1016.85 1017.46 1017.29 1017.45 1017.96 1018.38 1019.05 1019.61 1020.03 1020.70 1021.11 1021.47 1021.86 1022.07 1022.23 1022.35 1022.51 1022.71 1022.85 1022.93 1023.03 1023.06 1023.03 1023.12 1023.20 1023.19 1023.22 1023.26 1023.32 1023.30 1023.28 1023.20 1023.06 1022.85
1013.51 1013.23 1012.00 1011.73 1011.47 1011.50 1011.30 1010.92 1011.11 1011.46 1011.89 1012.49 1013.37 1014.06 1014.80 1016.67 1017.39 1017.42 1017.78 1018.28 1018.78 1018.99 1019.30 1019.71 1020.43 1020.72 1021.19 1021.73 1022.27 1022.39 1022.54 1022.70 1022.84 1023.01 1023.00 1022.98 1023.09 1022.97 1023.13 1023.16 1023.20 1023.22 1023.22 1023.18 1023.10 1023.07 1022.90 1022.74 1022.56
1013.64 1012.95 1012.16 1012.10 1011.61 1011.48 1011.65 1011.33 1011.20 1011.59 1012.06 1013.02 1014.26 1015.53 1016.34 1017.13 1017.45 1017.54 1017.97 1018.44 1018.95 1019.31 1019.37 1019.66 1020.38 1020.61 1020.91 1021.31 1022.12 1022.29 1022.47 1022.51 1022.62 1022.69 1022.86 1022.83 1022.70 1022.88 1023.02 1023.14 1023.12 1023.13 1023.10 1022.97 1022.93 1022.87 1022.71 1022.70 1022.55
1013.42 1012.98 1012.29 1012.38 1012.37 1012.16 1012.01 1011.69 1011.68 1011.58 1012.07 1012.52 1013.75 1015.57 1016.81 1017.36 1017.53 1017.62 1018.03 1018.40 1018.72 1019.16 1019.46 1019.77 1019.98 1020.55 1021.02 1021.35 1021.70 1021.88 1022.14 1022.15 1022.20 1022.35 1022.57 1022.68 1022.80 1023.07 1023.11 1023.00 1023.07 1023.06 1023.11 1022.93 1022.86 1022.69 1022.66 1022.33 1022.20
1013.61 1012.98 1012.66 1012.70 1013.00 1012.90 1012.37 1012.25 1011.88 1011.92 1012.62 1012.72 1013.26 1015.07 1016.44 1017.30 1017.27 1017.42 1017.88 1018.27 1018.65 1019.13 1019.51 1019.74 1019.96 1020.39 1020.75 1021.29 1021.47 1021.60 1021.81 1022.06 1022.34 1022.41 1022.56 1022.87 1023.01 1023.02 1023.00 1022.88 1022.75 1022.73 1022.71 1022.58 1022.44 1022.29 1022.12 1022.04 1021.86
1013.65 1013.38 1013.02 1013.04 1013.25 1013.02 1012.86 1012.47 1012.39 1012.23 1012.46 1013.07 1014.00 1015.49 1016.47 1016.93 1017.09 1017.20 1017.61 1018.28 1018.77 1019.19 1019.63 1019.89 1019.86 1020.33 1020.76 1020.95 1021.30 1021.46 1021.76 1022.04 1022.20 1022.46 1022.60 1022.68 1022.76 1022.85 1022.81 1022.76 1022.64 1022.47 1022.36 1022.41 1022.26 1022.07 1021.78 1021.79 1021.70
1013.39 1013.44 1013.15 1013.06 1013.37 1013.06 1013.11 1012.64 1012.53 1012.57 1012.72 1013.45 1014.47 1015.46 1016.30 1016.47 1016.66 1017.01 1017.38 1017.98 1018.67 1019.21 1019.77 1020.14 1020.22 1020.10 1020.38 1020.84 1021.03 1021.50 1021.74 1021.86 1022.10 1022.36 1022.51 1022.54 1022.64 1022.61 1022.55 1022.54 1022.55 1022.53 1022.50 1022.35 1022.51 1022.35 1022.23 1022.04 1021.81
1013.52 1013.69 1013.57 1013.29 1013.25 1013.33 1013.34 1013.10 1012.65 1012.63 1012.73 1013.51 1014.26 1015.00 1015.84 1016.10 1016.53 1016.78 1017.09 1017.60 1018.23 1018.93 1019.51 1020.03 1020.13 1020.02 1020.33 1020.70 1021.01 1021.41 1021.70 1021.96 1022.13 1022.20 1022.30 1022.50 1022.51 1022.55 1022.60 1022.69 1022.77 1022.68 1022.77 1022.67 1022.65 1022.54 1022.28 1022.22 1021.90
1014.49 1014.46 1014.00 1013.37 1013.29 1013.54 1013.81 1013.11 1012.44 1012.58 1012.76 1013.16 1013.86 1014.57 1015.49 1016.07 1016.53 1016.55 1016.86 1017.42 1018.11 1018.67 1018.98 1019.39 1019.50 1019.96 1020.36 1020.77 1021.06 1021.31 1021.60 1021.91 1022.00 1021.98 1022.31 1022.56 1022.83 1022.98 1022.90 1022.84 1022.94 1022.85 1022.86 1022.76 1022.66 1022.63 1022.83 1022.62 1022.37
1014.88 1014.38 1014.39 1013.80 1013.43 1013.80 1014.09 1013.49 1012.85 1012.58 1012.80 1013.03 1013.43 1014.17 1014.99 1015.70 1016.34 1016.43 1016.72 1017.26 1017.71 1018.01 1018.54 1019.09 1019.57 1020.08 1020.51 1020.62 1020.92 1021.15 1021.29 1021.59 1022.45 1022.79 1023.08 1023.32 1023.47 1023.43 1023.53 1023.31 1023.25 1023.20 1023.25 1023.27 1023.23 1023.29 1023.25 1022.95 1022.68
1013.92 1014.60 1014.82 1014.75 1014.59 1014.24 1014.26 1013.84 1013.04 1012.75 1012.85 1013.17 1013.16 1013.82 1014.73 1015.36 1015.83 1016.19 1016.70 1016.95 1017.30 1017.75 1018.42 1019.02 1019.57 1020.02 1020.29 1020.54 1020.81 1020.93 1022.03 1022.94 1023.36 1023.72 1023.99 1023.95 1024.20 1024.25 1024.11 1024.07 1023.96 1023.66 1023.59 1023.77 1023.74 1023.86 1023.65 1023.26 1022.95
1014.44 1014.79 1014.97 1015.31 1016.03 1015.69 1014.99 1014.25 1013.46 1013.01 1012.95 1013.31 1013.37 1013.74 1014.58 1015.26 1015.70 1016.16 1016.75 1017.18 1017.68 1017.96 1018.58 1019.05 1019.46 1019.79 1020.17 1020.51 1020.93 1021.38 1023.15 1023.88 1024.25 1024.49 1024.88 1024.86 1024.81 1024.62 1024.70 1024.79 1024.71 1024.31 1024.26 1024.41 1024.23 1024.37 1024.20 1023.89 1023.49
1014.49 1014.86 1015.70 1016.31 1016.42 1017.30 1016.43 1014.65 1013.77 1013.21 1013.00 1013.18 1013.64 1013.68 1014.59 1015.36 1016.27 1017.14 1017.85 1018.50 1018.92 1019.27 1019.50 1019.79 1020.30 1020.44 1020.99 1020.99 1021.72 1022.54 1023.75 1024.62 1024.71 1025.20 1025.56 1025.62 1025.52 1025.43 1025.24 1025.27 1025.46 1025.28 1025.02 1024.67 1024.86 1024.96 1024.96 1024.62 1024.44
1014.91 1014.97 1015.79 1016.62 1017.56 1017.74 1017.23 1015.76 1014.34 1013.45 1013.20 1013.45 1014.10 1014.44 1014.80 1016.05 1017.43 1018.91 1019.78 1020.56 1020.77 1021.03 1021.24 1021.59 1021.90 1021.99 1022.07 1022.30 1022.50 1023.39 1024.12 1024.83 1025.29 1025.90 1026.20 1026.77 1026.31 1026.28 1026.09 1026.12 1025.74 1026.45 1025.79 1025.76 1025.75 1025.63 1025.46 1025.48 1024.87
1014.89 1014.98 1015.84 1016.72 1017.47 1017.75 1017.20 1015.95 1014.35 1013.83 1013.73 1014.16 1014.92 1015.52 1016.30 1017.58 1018.65 1020.31 1021.27 1022.04 1022.56 1022.83 1022.95 1023.17 1023.47 1023.40 1023.41 1023.36 1023.65 1024.34 1025.06 1025.84 1026.26 1027.03 1027.02 1027.69 1027.38 1027.46 1026.75 1027.26 1026.51 1026.97 1026.77 1026.82 1026.64 1026.67 1026.42 1026.25 1025.79
1015.53 1015.43 1016.13 1016.84 1017.38 1017.62 1017.29 1016.71 1014.15 1013.52 1014.06 1014.84 1015.72 1016.67 1018.04 1019.22 1020.16 1021.71 1022.74 1023.29 1023.85 1024.06 1024.42 1024.66 1024.83 1024.86 1024.88 1024.72 1024.76 1025.35 1026.08 1027.03 1027.49 1027.87 1028.05 1028.47 1028.51 1028.31 1027.87 1027.97 1027.33 1027.58 1027.44 1027.45 1027.67 1027.33 1027.55 1027.26 1026.72
1015.75 1015.98 1016.57 1017.27 1017.88 1018.01 1017.18 1016.75 1015.00 1014.28 1014.10 1015.18 1016.59 1017.96 1019.12 1020.53 1021.72 1022.87 1023.89 1024.61 1024.77 1024.94 1025.49 1025.74 1025.73 1026.10 1026.33 1026.34 1026.65 1026.45 1026.96 1027.77 1028.02 1028.76 1029.35 1029.69 1029.73 1029.49 1028.93 1028.74 1028.32 1028.40 1028.50 1028.25 1028.29 1028.18 1027.99 1028.23 1028.13
1016.09 1016.38 1017.07 1018.13 1018.31 1017.84 1017.21 1017.02 1015.36 1014.92 1014.79 1015.96 1017.33 1018.85 1020.34 1021.81 1022.93 1023.71 1024.67 1025.46 1025.86 1025.68 1026.27 1026.55 1026.71 1026.98 1026.85 1027.94 1028.04 1027.83 1028.20 1028.97 1029.04 1029.61 1030.17 1030.47 1030.74 1030.51 1029.89 1029.39 1028.80 1028.74 1028.98 1029.03 1028.74 1028.65 1028.77 1029.07 1028.94
1015.94 1016.41 1017.13 1017.83 1018.22 1018.12 1017.70 1016.96 1015.98 1016.03 1015.79 1016.59 1018.37 1019.92 1021.30 1022.74 1024.14 1024.32 1025.55 1026.35 1026.58 1026.61 1027.29 1027.42 1027.37 1028.16 1027.58 1028.93 1029.10 1028.79 1029.19 1029.19 1029.86 1030.26 1030.34 1030.66 1030.65 1030.65 1030.06 1029.99 1029.54 1029.56 1029.64 1029.63 1029.57 1029.69 1029.72 1029.71 1029.43
1016.32 1016.51 1017.51 1017.68 1018.31 1018.28 1017.76 1017.12 1016.81 1016.68 1017.36 1018.09 1019.40 1020.89 1022.15 1023.23 1024.27 1025.21 1026.13 1026.58 1027.00 1027.61 1027.82 1028.09 1028.31 1028.61 1028.63 1029.09 1029.30 1029.46 1030.05 1030.13 1029.81 1030.11 1030.28 1030.79 1031.06 1030.66 1030.69 1030.42 1030.43 1030.52 1030.37 1030.48 1030.47 1030.73 1030.66 1030.19 1030.02
1016.36 1016.90 1017.62 1017.95 1018.70 1018.56 1017.87 1017.14 1016.56 1017.23 1017.87 1019.09 1020.27 1021.34 1022.75 1023.81 1024.90 1025.86 1026.56 1027.13 1027.70 1028.00 1028.24 1028.51 1028.51 1028.56 1028.96 1029.11 1029.40 1029.85 1029.87 1029.69 1029.94 1030.59 1031.10 1031.33 1031.45 1031.22 1031.06 1030.88 1030.95 1030.98 1030.79 1030.83 1030.85 1030.94 1030.77 1030.68 1030.30
1017.40 1017.17 1017.61 1017.95 1018.18 1018.03 1017.68 1017.28 1016.81 1016.56 1017.54 1019.07 1020.51 1021.70 1022.96 1024.21 1025.27 1026.10 1026.80 1027.45 1027.92 1028.17 1028.49 1028.77 1028.74 1028.86 1029.22 1029.51 1029.91 1029.96 1030.05 1030.19 1030.62 1031.06 1031.38 1031.46 1031.71 1031.67 1031.52 1031.54 1031.55 1031.51 1031.43 1031.54 1031.52 1031.50 1031.19 1030.95 1030.78
1017.94 1017.53 1017.61 1017.77 1018.36 1018.33 1017.84 1017.70 1017.26 1016.93 1017.68 1019.01 1020.76 1022.10 1023.20 1024.46 1025.43 1026.39 1027.09 1027.64 1028.16 1028.46 1028.60 1028.60 1028.81 1029.37 1029.67 1029.99 1030.19 1030.54 1030.87 1031.01 1031.19 1031.41 1031.75 1032.13 1032.04 1032.06 1032.12 1031.91 1031.83 1031.94 1031.92 1031.75 1031.61 1031.62 1031.79 1031.43 1031.29
Wind_Speed
13 10 4 3 2 3 5 4 4 9 8 8 8 7 13 12 7 8 6 10 14 14 11 8 12 14 14 12 11 12 14 14 12 15 17 16 14 13 13 13 12 11 12 11 11 12 12 12 11
10 4 2 4 2 4 4 5 8 11 8 8 7 2 8 7 6 11 5 12 14 14 10 10 12 14 14 12 11 12 13 15 16 16 16 16 14 13 13 12 11 11 11 11 10 10 10 9 9
7 5 2 4 0 3 3 5 12 10 6 4 5 10 6 5 11 6 10 12 13 11 12 12 12 14 13 12 12 12 12 13 14 15 15 13 12 12 11 11 9 10 9 9 9 9 9 9 9
4 3 4 4 4 5 4 3 11 8 4 5 9 9 7 9 4 7 10 13 10 12 14 11 13 13 13 12 12 12 12 12 12 13 13 13 13 12 11 11 11 11 9 8 8 7 7 7 7
3 5 4 6 10 2 4 2 7 8 7 5 3 6 8 8 9 11 10 11 9 14 12 10 12 12 11 11 11 11 11 11 11 12 12 12 12 11 10 9 9 8 7 7 6 6 5 5 5
4 3 4 4 3 6 2 3 4 7 8 5 10 10 6 14 6 8 9 10 13 12 12 10 9 10 10 10 10 10 10 10 10 10 10 9 9 9 8 7 7 6 6 5 5 5 4 5 5
4 4 4 4 8 4 3 2 4 6 6 7 2 7 5 8 7 4 8 9 11 12 10 9 8 8 9 9 9 9 9 8 8 8 8 7 7 6 5 5 5 4 4 4 4 5 6 6 7
2 3 3 6 8 4 1 2 3 9 7 5 6 3 7 11 11 7 9 8 9 12 10 10 10 8 7 6 7 8 8 8 7 7 5 4 5 5 4 4 3 2 2 3 4 4 5 7 8
3 4 4 5 5 5 3 3 2 2 7 5 7 7 14 18 11 7 8 7 8 4 9 11 7 6 7 9 6 6 7 6 6 5 5 5 4 5 6 5 3 2 2 4 5 6 7 9 10
3 3 4 8 7 7 5 4 4 4 8 8 10 16 16 17 10 9 9 8 8 7 7 6 8 6 6 8 6 6 6 5 6 6 5 4 1 4 1 3 6 6 7 8 8 8 9 7 4
4 3 5 4 9 8 2 5 4 5 6 8 15 16 14 16 11 10 10 9 9 9 5 7 5 6 6 6 5 3 3 3 3 3 2 2 2 2 3 2 3 3 5 4 5 5 4 4 3
4 4 3 4 4 4 4 5 3 3 5 6 13 18 13 13 11 10 8 7 8 8 8 8 7 6 3 4 3 4 3 2 2 3 3 1 1 2 3 2 2 2 3 3 3 2 4 5 5
13 8 6 5 2 2 4 4 4 3 9 7 18 16 14 11 9 8 10 11 7 7 7 3 4 8 6 3 4 3 4 3 2 3 3 1 2 1 2 3 2 3 2 2 3 4 4 4 6
12 9 8 7 6 2 3 4 0 6 5 9 11 13 11 10 10 8 8 10 10 7 7 5 5 6 7 5 3 3 1 3 3 1 2 4 1 2 2 3 4 4 3 4 4 5 4 5 5
11 11 12 12 8 3 1 5 7 7 5 10 9 10 10 9 8 9 8 8 9 9 11 11 9 6 6 5 4 2 3 2 2 3 4 2 2 2 3 3 3 4 4 5 5 5 5 5 6
5 1 10 10 9 5 3 5 9 7 6 8 10 10 10 8 9 7 8 8 8 7 10 10 7 7 6 6 5 4 4 4 3 2 4 7 8 7 5 4 4 4 4 3 3 4 6 5 5
7 9 7 2 4 6 7 5 5 7 5 4 9 11 9 10 11 9 11 9 13 11 8 8 7 6 7 5 5 5 5 3 7 7 7 10 9 9 6 4 5 6 4 5 5 5 4 4 5
14 18 5 8 2 9 10 10 9 8 4 3 6 10 9 9 9 9 11 8 7 8 8 9 8 8 7 5 4 4 9 7 8 7 8 11 8 8 6 5 6 5 4 5 5 5 5 4 4
7 10 7 3 5 4 13 13 15 8 5 4 5 9 10 8 8 8 8 7 7 6 6 5 6 6 4 3 4 2 6 6 7 8 10 9 8 7 8 5 5 5 6 7 8 5 6 4 6
9 15 7 5 5 4 11 15 11 10 6 8 5 7 11 8 8 11 13 13 10 9 10 11 11 11 8 4 4 6 5 6 7 8 9 9 10 10 9 8 7 7 6 8 8 8 4 3 7
6 10 10 7 6 1 2 8 12 10 5 5 5 5 8 15 12 13 15 13 13 15 15 13 14 13 12 8 9 9 7 5 7 7 8 9 11 11 12 10 10 8 8 7 7 7 8 5 4
7 9 9 11 10 4 5 3 13 15 10 8 7 3 11 15 15 12 11 11 12 12 13 14 13 13 11 11 11 13 9 8 8 7 8 8 11 11 11 9 10 9 7 9 7 8 8 6 7
2 8 7 6 4 2 5 2 7 18 17 10 8 9 12 13 14 12 11 12 11 11 11 11 13 14 14 14 13 11 12 8 7 7 9 9 8 10 10 9 9 8 7 8 7 7 8 6 6
4 10 11 6 3 3 6 6 4 3 6 13 10 10 13 13 13 13 12 11 11 11 12 12 14 15 14 15 14 15 14 11 9 10 7 7 7 8 11 10 9 7 6 8 6 7 11 9 7
7 5 2 3 2 3 1 6 7 5 8 14 15 12 12 13 12 11 11 10 10 12 12 11 12 14 13 13 12 13 13 11 11 9 6 7 5 4 6 7 9 8 9 8 9 9 9 8 7
11 6 2 2 3 3 4 6 3 4 8 15 13 13 12 12 11 13 12 10 11 11 10 10 12 11 13 9 11 9 9 7 6 6 5 3 2 4 8 8 10 11 10 10 9 7 6 6 7
3 4 1 4 2 3 4 2 2 7 11 13 15 13 13 13 12 12 11 9 9 8 9 8 9 8 10 8 7 8 6 6 6 5 6 5 5 6 8 9 9 10 10 9 8 5 7 6 7
2 8 4 3 4 4 4 4 4 7 11 11 12 13 14 13 13 11 9 9 8 8 7 7 7 9 7 6 6 5 6 8 9 8 7 7 6 7 7 7 8 7 7 8 7 4 6 6 5
4 3 4 2 1 3 4 3 4 6 14 13 12 13 15 14 10 9 8 8 7 6 6 6 6 7 7 7 6 7 8 9 8 7 7 6 6 6 6 6 6 6 8 8 7 7 7 7 6
3 1 5 3 3 2 3 3 6 5 13 14 13 13 13 12 10 9 8 8 7 7 7 7 6 7 7 6 7 8 7 7 7 7 6 5 5 5 6 6 6 6 7 8 9 9 9 9 8
Wind_Direction
282 240 263 272 242 225 315 162 351 131 91 64 47 36 95 39 23 103 175 117 115 121 121 131 123 114 105 94 76 64 73 87 103 105 101 95 90 86 81 77 75 77 71 66 63 60 56 55 55
300 263 235 277 248 40 313 184 124 78 91 104 70 8 55 76 61 115 100 122 114 115 142 119 115 113 104 94 82 74 70 76 86 87 84 81 81 83 80 78 79 72 74 71 64 56 51 49 46
258 262 262 214 92 166 234 67 91 95 124 131 115 50 40 82 140 127 126 124 115 133 112 117 115 109 105 96 85 79 79 81 81 80 82 83 81 80 71 65 78 88 73 65 59 50 44 37 33
301 210 240 251 89 124 254 230 113 114 76 13 107 87 90 59 120 117 146 117 123 116 106 113 119 111 108 102 96 92 84 83 87 92 89 87 83 78 71 65 65 64 70 63 58 52 49 43 32
188 262 255 230 146 231 195 44 139 159 152 118 58 71 95 79 97 140 131 119 124 106 114 121 117 115 111 106 101 97 94 89 87 94 92 94 93 87 79 71 68 69 73 74 71 62 46 30 20
289 248 247 222 124 245 78 197 159 100 96 84 117 106 90 114 144 142 132 123 112 120 127 130 117 114 109 101 99 99 101 102 102 96 100 98 94 88 82 79 73 66 58 49 41 36 20 359 352
301 311 275 7 145 210 80 340 63 104 118 76 17 109 104 139 152 203 132 126 122 127 125 132 132 113 103 103 103 102 102 100 93 91 93 96 97 99 98 81 72 64 46 21 5 354 344 338 328
295 287 141 202 227 98 341 55 16 24 60 71 356 122 157 156 161 213 126 127 115 131 149 154 140 154 141 130 110 108 109 106 102 103 114 138 155 151 152 137 101 60 17 343 336 327 317 301 284
309 269 191 238 169 109 164 175 48 40 116 53 46 46 107 139 166 189 128 129 120 146 150 147 127 151 156 127 125 122 122 127 135 141 186 209 214 191 167 141 158 229 268 276 276 273 271 270 272
226 270 22 30 16 80 106 315 118 189 123 123 94 88 114 143 170 158 147 146 137 147 138 124 147 172 128 125 156 167 165 183 190 187 195 214 66 69 29 191 207 231 238 251 250 254 259 273 273
210 244 131 88 34 351 357 89 332 270 169 129 152 136 139 154 182 154 159 152 150 156 141 143 132 129 136 122 180 165 163 194 165 150 176 85 25 174 229 206 229 238 234 269 215 249 241 266 294
262 265 327 70 75 308 19 320 215 309 107 45 115 136 147 172 184 162 149 140 137 141 145 147 153 137 153 140 187 164 153 149 162 162 120 76 239 218 284 295 317 248 206 247 257 261 269 275 269
213 238 202 100 176 326 349 261 2 302 99 80 110 128 157 177 178 166 158 148 162 136 135 161 148 152 165 182 202 155 134 132 208 107 148 230 258 187 266 284 269 258 304 321 288 297 291 307 296
197 215 246 171 207 256 335 334 271 101 109 114 131 143 165 186 173 166 156 149 151 148 140 188 239 183 157 168 172 138 181 154 107 143 180 175 219 268 322 336 333 354 345 311 330 318 317 305 303
218 199 229 242 189 226 10 267 225 137 145 139 157 145 161 179 164 176 160 156 154 155 165 181 203 190 151 152 151 159 157 80 148 176 166 204 307 323 343 337 332 349 343 3 340 330 330 340 340
156 334 202 205 196 167 141 278 190 137 162 175 162 143 152 172 167 209 152 141 141 178 175 175 176 155 163 165 167 171 154 175 206 92 41 37 28 17 3 5 32 18 5 338 345 342 332 314 302
184 188 190 181 239 184 170 238 231 144 157 231 152 141 155 165 170 208 153 179 172 179 154 151 149 165 170 182 164 174 172 95 59 52 47 41 34 21 13 11 25 23 10 9 15 3 357 340 331
188 201 168 205 180 249 187 229 271 157 143 281 164 141 150 157 173 165 163 180 157 142 147 156 153 173 172 164 178 162 67 63 58 51 45 41 29 13 11 18 30 20 28 26 13 10 344 337 349
164 196 202 128 102 55 253 211 239 248 181 198 270 142 145 155 160 144 149 148 137 119 118 138 148 167 155 161 169 118 82 68 65 57 48 43 31 29 29 21 16 12 44 33 20 1 351 340 346
175 171 181 34 51 136 275 237 229 237 230 174 257 164 144 136 101 71 58 44 41 53 51 51 50 46 44 55 67 105 100 75 84 72 56 41 36 31 42 32 18 17 28 39 22 14 353 335 349
183 176 160 136 136 173 275 263 252 238 253 123 66 10 141 120 106 72 63 49 47 46 44 48 43 39 40 57 92 94 93 81 71 65 61 33 42 36 41 31 48 21 34 26 16 14 14 344 346
157 111 107 126 155 204 180 251 213 222 210 148 124 293 105 102 91 84 75 60 51 52 52 51 47 44 44 58 71 76 77 77 73 67 61 48 41 33 46 27 45 36 32 24 15 15 16 355 8
14 131 137 136 107 68 169 246 287 191 206 153 137 108 97 96 99 93 83 79 70 64 62 64 61 54 52 63 78 83 79 68 60 54 53 40 30 35 30 26 37 33 33 27 12 18 23 18 26
117 74 59 54 75 193 180 191 263 177 172 135 102 91 99 98 96 98 92 90 86 84 76 71 71 61 53 58 58 72 75 70 69 47 37 24 15 15 20 18 29 33 26 24 12 23 35 22 16
166 114 90 125 154 190 50 174 241 54 69 145 135 121 110 108 105 110 96 87 82 90 83 80 73 72 67 53 60 69 71 69 72 65 53 34 10 4 6 17 30 35 29 20 27 34 30 19 14
187 151 103 172 169 139 347 213 230 63 74 109 114 119 112 112 118 104 104 101 90 76 80 78 80 71 73 75 72 70 75 81 81 81 84 72 31 22 20 22 32 31 30 22 31 33 18 19 13
148 143 68 98 125 104 197 268 171 113 105 116 127 136 128 124 123 123 122 111 103 93 88 97 102 96 84 81 87 82 104 121 98 89 66 55 31 32 30 31 38 31 32 29 26 26 15 18 9
29 147 87 25 145 214 192 197 218 176 147 137 146 141 134 132 130 126 115 102 98 99 97 95 91 97 123 132 112 107 89 73 71 65 54 47 39 38 38 37 41 38 41 31 26 19 15 14 10
129 147 73 72 117 203 134 238 351 201 162 156 157 148 144 143 128 123 116 115 114 105 108 130 135 114 90 80 80 77 68 68 68 64 57 50 47 33 42 42 43 35 41 30 26 13 15 9 4
354 146 165 161 188 262 107 270 335 1 150 152 155 150 140 136 136 132 134 135 137 146 149 127 114 89 85 84 78 71 68 66 67 65 56 35 53 42 42 45 50 41 43 35 28 19 4 359 359